Regional Weather Roundup
Issued by NWS

Home | Current Version | Previous Version | Graphics & Text | Print | Product List | Glossary Off
Versions: 1 2 3 4 5 6 7 8 9 10 11 12 13 14 15 16 17 18 19 20 21 22 23 24 25 26 27 28 29 30 31 32 33 34 35 36 37 38 39 40 41 42 43 44 45 46 47 48 49 50

000
ASUS43 KTOP 201959
RWRKS

WEATHER ROUNDUP FOR KANSAS
NATIONAL WEATHER SERVICE GOODLAND KS
300 PM CDT FRI OCT 20 2017

NOTE:  "FAIR" INDICATES FEW OR NO CLOUDS BELOW 12,000 FEET WITH NO
SIGNIFICANT WEATHER AND/OR OBSTRUCTIONS TO VISIBILITY.

KSZ001>006-013>018-027>032-041>047-202100-
NORTHWEST KANSAS

CITY           SKY/WX    TMP DP  RH WIND       PRES   REMARKS
GOODLAND       MOSUNNY   76  42  29 S23G31    29.58F
HAYS           MOSUNNY   78  55  44 S23G37    29.68F
HILL CITY      SUNNY     79  54  41 S28G45    29.62F
RUSSELL        MOSUNNY   74  60  61 S29G40    29.71F
$$

KSZ061>065-074>080-084>089-202100-
SOUTHWEST KANSAS

CITY           SKY/WX    TMP DP  RH WIND       PRES   REMARKS
DODGE CITY     MOSUNNY   79  52  38 S31G44    29.70F
ELKHART          N/A     79  49  35 S17         N/A
GARDEN CITY    LGT RAIN  77  52  41 S28G39    29.67F
GREAT BEND     PTSUNNY   75  59  57 S26G37    29.73F
LIBERAL        SUNNY     78  53  41 S30G40    29.70F
$$

KSZ066>073-081>083-090>101-202100-
SOUTHEAST KANSAS

CITY           SKY/WX    TMP DP  RH WIND       PRES   REMARKS
CHANUTE        CLOUDY    75  59  57 S24G35    29.94F
COFFEYVILLE    LGT RAIN  74  59  59 S22G36    29.95F
HUTCHINSON     PTSUNNY   76  60  57 S24G35    29.79F
MEDICINE LODGE   N/A     76  57  51 S23G35    29.78F
NEWTON         MOSUNNY   76  58  53 S28G41    29.82F
PARSONS        MOSUNNY   75  58  55 S18G31    29.96F
WICHITA INTL   MOSUNNY   77  59  53 S32G41    29.82F
WICHITA JABRA  SUNNY     77  59  53 S25G35    29.82F
WICHITA MCCONL SUNNY     77  57  49 S26G35    29.83F
WINFIELD       SUNNY     76  59  55 S25G35    29.88F
$$

KSZ007>012-019>026-033>040-048>060-102>105-202100-
NORTHEAST KANSAS

CITY           SKY/WX    TMP DP  RH WIND       PRES   REMARKS
CONCORDIA      CLOUDY    76  60  57 S28G40    29.74F
EMPORIA        SUNNY     75  57  53 S29G38    29.86F
LAWRENCE       SUNNY     76  60  57 S18G25    29.89F
MANHATTAN      CLOUDY    78  61  55 S24G39    29.79F
OLATHE IND     CLOUDY    74  58  57 SE21G28   29.92F
OLATHE EXE     MOSUNNY   72  58  61 S16G25    29.93F
SALINA         CLOUDY    78  60  53 S30G46    29.77F
TOPEKA BILLARD MOSUNNY   78  60  53 S17G32    29.85F
TOPEKA FORBES  SUNNY     77  60  55 S21G31    29.86F
$$



USA.gov is the U.S. government's official web portal to all federal, state and local government web resources and services.